Time,TemperatureF,DewpointF,PressureIn,WindDirection,WindDirectionDegrees,WindSpeedMPH,WindSpeedGustMPH,Humidity,HourlyPrecipIn,Conditions,Clouds,dailyrainin,SoftwareType,DateUTC
2013-02-17 00:02:00,28.0,17.0,30.26,WNW,291,2.0,-999.0,62,-99.99,,,0.00,,2013-02-17 06:02:00,
2013-02-17 00:11:00,28.0,17.0,30.26,WNW,291,2.0,-999.0,62,-99.99,,,0.00,,2013-02-17 06:11:00,
2013-02-17 00:21:00,28.0,17.0,30.26,WNW,297,2.0,-999.0,64,-99.99,,,0.00,,2013-02-17 06:21:00,
2013-02-17 00:31:00,28.0,18.0,30.26,WNW,299,1.0,-999.0,67,-99.99,,,0.00,,2013-02-17 06:31:00,
2013-02-17 00:41:00,28.0,18.0,30.26,WNW,299,1.0,-999.0,67,-99.99,,,0.00,,2013-02-17 06:41:00,
2013-02-17 00:52:00,27.0,18.0,30.27,WNW,295,2.0,-999.0,67,-99.99,,,0.00,,2013-02-17 06:52:00,
2013-02-17 01:01:00,27.0,18.0,30.27,WNW,293,2.0,-999.0,67,-99.99,,,0.00,,2013-02-17 07:01:00,
2013-02-17 01:11:00,27.0,18.0,30.27,WNW,283,2.0,-999.0,69,-99.99,,,0.00,,2013-02-17 07:11:00,
2013-02-17 01:21:00,27.0,18.0,30.27,WNW,283,2.0,-999.0,69,-99.99,,,0.00,,2013-02-17 07:21:00,
2013-02-17 01:31:00,27.0,18.0,30.28,WNW,283,1.0,-999.0,67,-99.99,,,0.00,,2013-02-17 07:31:00,
2013-02-17 01:41:00,27.0,18.0,30.28,WNW,283,1.0,-999.0,67,-99.99,,,0.00,,2013-02-17 07:41:00,
2013-02-17 01:51:00,27.0,17.0,30.27,NW,319,2.0,-999.0,66,-99.99,,,0.00,,2013-02-17 07:51:00,
2013-02-17 02:01:00,26.0,18.0,30.27,NW,319,0.0,-999.0,70,-99.99,,,0.00,,2013-02-17 08:01:00,
2013-02-17 02:11:00,26.0,18.0,30.27,NW,319,0.0,-999.0,70,-99.99,,,0.00,,2013-02-17 08:11:00,
2013-02-17 02:21:00,26.0,18.0,30.27,NW,319,0.0,-999.0,71,-99.99,,,0.00,,2013-02-17 08:21:00,
2013-02-17 02:31:00,26.0,18.0,30.27,NW,319,0.0,-999.0,71,-99.99,,,0.00,,2013-02-17 08:31:00,
2013-02-17 02:42:00,26.0,18.0,30.27,NW,319,0.0,-999.0,71,-99.99,,,0.00,,2013-02-17 08:42:00,
2013-02-17 02:52:00,25.0,17.0,30.26,NW,319,0.0,-999.0,70,-99.99,,,0.00,,2013-02-17 08:52:00,
2013-02-17 03:02:00,24.0,16.0,30.26,NW,319,0.0,-999.0,71,-99.99,,,0.00,,2013-02-17 09:02:00,
2013-02-17 03:11:00,24.0,16.0,30.26,NW,319,0.0,-999.0,71,-99.99,,,0.00,,2013-02-17 09:11:00,
2013-02-17 03:21:00,24.0,17.0,30.25,NW,319,0.0,-999.0,73,-99.99,,,0.00,,2013-02-17 09:21:00,
2013-02-17 03:31:00,24.0,17.0,30.25,NW,319,0.0,-999.0,74,-99.99,,,0.00,,2013-02-17 09:31:00,
2013-02-17 03:41:00,24.0,17.0,30.25,NW,319,0.0,-999.0,74,-99.99,,,0.00,,2013-02-17 09:41:00,
2013-02-17 03:51:00,23.0,16.0,30.25,NW,319,1.0,-999.0,74,-99.99,,,0.00,,2013-02-17 09:51:00,
2013-02-17 04:01:00,23.0,16.0,30.26,NW,320,0.0,-999.0,75,-99.99,,,0.00,,2013-02-17 10:01:00,
2013-02-17 04:11:00,23.0,16.0,30.26,NW,320,0.0,-999.0,75,-99.99,,,0.00,,2013-02-17 10:11:00,
2013-02-17 04:21:00,23.0,17.0,30.27,NW,319,0.0,-999.0,76,-99.99,,,0.00,,2013-02-17 10:21:00,
2013-02-17 04:31:00,23.0,17.0,30.27,NW,319,0.0,-999.0,76,-99.99,,,0.00,,2013-02-17 10:31:00,
2013-02-17 04:41:00,23.0,17.0,30.27,NW,319,0.0,-999.0,76,-99.99,,,0.00,,2013-02-17 10:41:00,
2013-02-17 04:52:00,22.0,16.0,30.28,NW,319,0.0,-999.0,79,-99.99,,,0.00,,2013-02-17 10:52:00,
2013-02-17 05:01:00,22.0,17.0,30.28,NW,320,0.0,-999.0,80,-99.99,,,0.00,,2013-02-17 11:01:00,
2013-02-17 05:11:00,22.0,17.0,30.28,NW,320,0.0,-999.0,80,-99.99,,,0.00,,2013-02-17 11:11:00,
2013-02-17 05:21:00,21.0,16.0,30.29,NW,319,0.0,-999.0,82,-99.99,,,0.00,,2013-02-17 11:21:00,
2013-02-17 05:32:00,21.0,17.0,30.30,NW,319,0.0,-999.0,84,-99.99,,,0.00,,2013-02-17 11:32:00,
2013-02-17 05:42:00,21.0,17.0,30.30,NW,319,0.0,-999.0,84,-99.99,,,0.00,,2013-02-17 11:42:00,
2013-02-17 05:52:00,21.0,17.0,30.31,NW,320,0.0,-999.0,85,-99.99,,,0.00,,2013-02-17 11:52:00,
2013-02-17 06:03:00,21.0,17.0,30.31,NW,320,0.0,-999.0,85,-99.99,,,0.00,,2013-02-17 12:03:00,
2013-02-17 06:11:00,21.0,17.0,30.31,NW,320,0.0,-999.0,85,-99.99,,,0.00,,2013-02-17 12:11:00,
2013-02-17 06:22:00,21.0,17.0,30.30,NW,320,1.0,-999.0,85,-99.99,,,0.00,,2013-02-17 12:22:00,
2013-02-17 06:32:00,21.0,17.0,30.31,NW,320,1.0,-999.0,86,-99.99,,,0.00,,2013-02-17 12:32:00,
2013-02-17 06:42:00,21.0,17.0,30.31,NW,320,1.0,-999.0,86,-99.99,,,0.00,,2013-02-17 12:42:00,
2013-02-17 06:52:00,21.0,18.0,30.31,NW,319,1.0,-999.0,87,-99.99,,,0.00,,2013-02-17 12:52:00,
2013-02-17 07:02:00,22.0,19.0,30.32,NW,319,0.0,-999.0,87,-99.99,,,0.00,,2013-02-17 13:02:00,
2013-02-17 07:12:00,22.0,19.0,30.32,NW,319,0.0,-999.0,87,-99.99,,,0.00,,2013-02-17 13:12:00,
2013-02-17 07:21:00,22.0,19.0,30.32,NW,319,0.0,-999.0,87,-99.99,,,0.00,,2013-02-17 13:21:00,
2013-02-17 07:32:00,24.0,20.0,30.33,SSE,160,1.0,-999.0,86,-99.99,,,0.00,,2013-02-17 13:32:00,
2013-02-17 07:41:00,24.0,20.0,30.33,SSE,160,1.0,-999.0,86,-99.99,,,0.00,,2013-02-17 13:41:00,
2013-02-17 07:52:00,25.0,21.0,30.33,SSE,160,0.0,-999.0,83,-99.99,,,0.00,,2013-02-17 13:52:00,
2013-02-17 08:01:00,27.0,21.0,30.34,SSE,160,0.0,-999.0,79,-99.99,,,0.00,,2013-02-17 14:01:00,
2013-02-17 08:11:00,27.0,21.0,30.34,SSE,160,0.0,-999.0,79,-99.99,,,0.00,,2013-02-17 14:11:00,
2013-02-17 08:21:00,29.0,22.0,30.36,SSE,160,0.0,-999.0,76,-99.99,,,0.00,,2013-02-17 14:21:00,
2013-02-17 08:32:00,29.0,22.0,30.36,SSE,160,0.0,-999.0,76,-99.99,,,0.00,,2013-02-17 14:32:00,
2013-02-17 08:42:00,29.0,22.0,30.36,SSE,160,0.0,-999.0,76,-99.99,,,0.00,,2013-02-17 14:42:00,
2013-02-17 08:53:00,31.0,22.0,30.37,SSE,160,1.0,-999.0,70,-99.99,,,0.00,,2013-02-17 14:53:00,
2013-02-17 09:02:00,31.0,22.0,30.37,SSE,160,1.0,-999.0,70,-99.99,,,0.00,,2013-02-17 15:02:00,
2013-02-17 09:11:00,31.0,22.0,30.37,SSE,160,1.0,-999.0,70,-99.99,,,0.00,,2013-02-17 15:11:00,
2013-02-17 09:21:00,35.0,23.0,30.37,SW,223,1.0,-999.0,60,-99.99,,,0.00,,2013-02-17 15:21:00,
2013-02-17 09:32:00,36.0,21.0,30.36,SW,236,3.0,-999.0,53,-99.99,,,0.00,,2013-02-17 15:32:00,
2013-02-17 09:42:00,36.0,21.0,30.36,SW,236,3.0,-999.0,53,-99.99,,,0.00,,2013-02-17 15:42:00,
2013-02-17 09:52:00,36.0,20.0,30.36,WSW,249,3.0,-999.0,51,-99.99,,,0.00,,2013-02-17 15:52:00,
2013-02-17 10:01:00,37.0,20.0,30.36,WNW,301,3.0,-999.0,50,-99.99,,,0.00,,2013-02-17 16:01:00,
2013-02-17 10:11:00,37.0,20.0,30.36,WNW,301,3.0,-999.0,50,-99.99,,,0.00,,2013-02-17 16:11:00,
2013-02-17 10:21:00,37.0,20.0,30.36,WNW,288,3.0,-999.0,49,-99.99,,,0.00,,2013-02-17 16:21:00,
2013-02-17 10:32:00,38.0,20.0,30.36,WSW,251,2.0,-999.0,47,-99.99,,,0.00,,2013-02-17 16:32:00,
2013-02-17 10:41:00,38.0,20.0,30.36,WSW,251,2.0,-999.0,47,-99.99,,,0.00,,2013-02-17 16:41:00,
2013-02-17 10:51:00,40.0,22.0,30.36,WNW,283,1.0,-999.0,48,-99.99,,,0.00,,2013-02-17 16:51:00,
2013-02-17 11:02:00,41.0,20.0,30.35,SSE,149,3.0,-999.0,42,-99.99,,,0.00,,2013-02-17 17:02:00,
2013-02-17 11:11:00,41.0,20.0,30.35,SSE,149,3.0,-999.0,42,-99.99,,,0.00,,2013-02-17 17:11:00,
2013-02-17 11:21:00,42.0,19.0,30.34,SSW,202,2.0,-999.0,40,-99.99,,,0.00,,2013-02-17 17:21:00,
2013-02-17 11:32:00,42.0,18.0,30.34,West,276,3.0,-999.0,37,-99.99,,,0.00,,2013-02-17 17:32:00,
2013-02-17 11:41:00,42.0,18.0,30.34,West,276,3.0,-999.0,37,-99.99,,,0.00,,2013-02-17 17:41:00,
2013-02-17 11:52:00,43.0,18.0,30.33,West,268,3.0,-999.0,36,-99.99,,,0.00,,2013-02-17 17:52:00,
2013-02-17 12:02:00,43.0,17.0,30.33,NW,308,4.0,-999.0,35,-99.99,,,0.00,,2013-02-17 18:02:00,
2013-02-17 12:11:00,43.0,17.0,30.33,NW,308,4.0,-999.0,35,-99.99,,,0.00,,2013-02-17 18:11:00,
2013-02-17 12:22:00,43.0,17.0,30.31,NW,311,4.0,-999.0,35,-99.99,,,0.00,,2013-02-17 18:22:00,
2013-02-17 12:33:00,43.0,17.0,30.31,WNW,287,6.0,-999.0,35,-99.99,,,0.00,,2013-02-17 18:33:00,
2013-02-17 12:42:00,43.0,17.0,30.31,WNW,287,6.0,-999.0,35,-99.99,,,0.00,,2013-02-17 18:42:00,
2013-02-17 12:52:00,45.0,20.0,30.30,NW,312,4.0,-999.0,36,-99.99,,,0.00,,2013-02-17 18:52:00,
2013-02-17 13:01:00,45.0,18.0,30.30,SSW,202,5.0,-999.0,34,-99.99,,,0.00,,2013-02-17 19:01:00,
2013-02-17 13:11:00,45.0,18.0,30.30,SSW,202,5.0,-999.0,34,-99.99,,,0.00,,2013-02-17 19:11:00,
2013-02-17 13:21:00,45.0,18.0,30.29,NE,48,5.0,-999.0,34,-99.99,,,0.00,,2013-02-17 19:21:00,
2013-02-17 13:32:00,45.0,17.0,30.29,West,264,6.0,-999.0,32,-99.99,,,0.00,,2013-02-17 19:32:00,
2013-02-17 13:42:00,45.0,17.0,30.29,West,264,6.0,-999.0,32,-99.99,,,0.00,,2013-02-17 19:42:00,
2013-02-17 13:51:00,46.0,19.0,30.28,SW,222,3.0,-999.0,33,-99.99,,,0.00,,2013-02-17 19:51:00,
2013-02-17 14:02:00,46.0,19.0,30.28,SW,234,6.0,-999.0,34,-99.99,,,0.00,,2013-02-17 20:02:00,
2013-02-17 14:11:00,46.0,19.0,30.28,SW,234,6.0,-999.0,34,-99.99,,,0.00,,2013-02-17 20:11:00,
2013-02-17 14:21:00,47.0,18.0,30.27,SW,229,5.0,-999.0,31,-99.99,,,0.00,,2013-02-17 20:21:00,
2013-02-17 14:32:00,47.0,19.0,30.27,NW,326,6.0,-999.0,32,-99.99,,,0.00,,2013-02-17 20:32:00,
2013-02-17 14:42:00,47.0,19.0,30.27,NW,326,6.0,-999.0,32,-99.99,,,0.00,,2013-02-17 20:42:00,
2013-02-17 14:52:00,47.0,19.0,30.26,NNW,328,5.0,-999.0,33,-99.99,,,0.00,,2013-02-17 20:52:00,
2013-02-17 15:02:00,47.0,19.0,30.26,SW,218,4.0,-999.0,33,-99.99,,,0.00,,2013-02-17 21:02:00,
2013-02-17 15:11:00,47.0,19.0,30.26,SW,218,4.0,-999.0,33,-99.99,,,0.00,,2013-02-17 21:11:00,
2013-02-17 15:21:00,48.0,19.0,30.25,SW,228,2.0,-999.0,31,-99.99,,,0.00,,2013-02-17 21:21:00,
2013-02-17 15:31:00,48.0,19.0,30.25,SW,228,2.0,-999.0,31,-99.99,,,0.00,,2013-02-17 21:31:00,
2013-02-17 15:41:00,48.0,19.0,30.25,SW,228,2.0,-999.0,31,-99.99,,,0.00,,2013-02-17 21:41:00,
2013-02-17 15:53:00,47.0,19.0,30.24,WNW,295,1.0,-999.0,33,-99.99,,,0.00,,2013-02-17 21:53:00,
2013-02-17 16:01:00,47.0,20.0,30.24,South,177,1.0,-999.0,34,-99.99,,,0.00,,2013-02-17 22:01:00,
2013-02-17 16:12:00,47.0,20.0,30.24,South,177,1.0,-999.0,34,-99.99,,,0.00,,2013-02-17 22:12:00,
2013-02-17 16:21:00,47.0,19.0,30.24,WNW,287,2.0,-999.0,33,-99.99,,,0.00,,2013-02-17 22:21:00,
2013-02-17 16:32:00,48.0,21.0,30.24,SSW,210,1.0,-999.0,34,-99.99,,,0.00,,2013-02-17 22:32:00,
2013-02-17 16:42:00,48.0,21.0,30.24,SSW,210,1.0,-999.0,34,-99.99,,,0.00,,2013-02-17 22:42:00,
2013-02-17 16:52:00,49.0,20.0,30.24,East,89,1.0,-999.0,32,-99.99,,,0.00,,2013-02-17 22:52:00,
2013-02-17 17:02:00,48.0,20.0,30.24,East,83,2.0,-999.0,32,-99.99,,,0.00,,2013-02-17 23:02:00,
2013-02-17 17:11:00,48.0,20.0,30.24,East,83,2.0,-999.0,32,-99.99,,,0.00,,2013-02-17 23:11:00,
2013-02-17 17:21:00,47.0,19.0,30.23,East,83,1.0,-999.0,33,-99.99,,,0.00,,2013-02-17 23:21:00,
2013-02-17 17:32:00,47.0,19.0,30.23,East,83,1.0,-999.0,33,-99.99,,,0.00,,2013-02-17 23:32:00,
2013-02-17 17:42:00,47.0,19.0,30.23,East,83,1.0,-999.0,33,-99.99,,,0.00,,2013-02-17 23:42:00,
2013-02-17 17:52:00,45.0,20.0,30.22,East,83,1.0,-999.0,36,-99.99,,,0.00,,2013-02-17 23:52:00,
2013-02-17 18:01:00,44.0,21.0,30.23,East,83,0.0,-999.0,39,-99.99,,,0.00,,2013-02-18 00:01:00,
2013-02-17 18:11:00,44.0,21.0,30.23,East,83,0.0,-999.0,39,-99.99,,,0.00,,2013-02-18 00:11:00,
2013-02-17 18:22:00,42.0,22.0,30.23,East,83,0.0,-999.0,45,-99.99,,,0.00,,2013-02-18 00:22:00,
2013-02-17 18:32:00,41.0,22.0,30.23,East,83,1.0,-999.0,47,-99.99,,,0.00,,2013-02-18 00:32:00,
2013-02-17 18:42:00,41.0,22.0,30.23,East,83,1.0,-999.0,47,-99.99,,,0.00,,2013-02-18 00:42:00,
2013-02-17 18:52:00,40.0,22.0,30.23,East,83,0.0,-999.0,49,-99.99,,,0.00,,2013-02-18 00:52:00,
2013-02-17 19:01:00,39.0,22.0,30.24,East,83,0.0,-999.0,51,-99.99,,,0.00,,2013-02-18 01:01:00,
2013-02-17 19:11:00,39.0,22.0,30.24,East,83,0.0,-999.0,51,-99.99,,,0.00,,2013-02-18 01:11:00,
2013-02-17 19:21:00,39.0,23.0,30.24,East,83,0.0,-999.0,52,-99.99,,,0.00,,2013-02-18 01:21:00,
2013-02-17 19:31:00,38.0,22.0,30.24,East,83,1.0,-999.0,52,-99.99,,,0.00,,2013-02-18 01:31:00,
2013-02-17 19:41:00,38.0,22.0,30.24,East,83,1.0,-999.0,52,-99.99,,,0.00,,2013-02-18 01:41:00,
2013-02-17 19:52:00,38.0,22.0,30.24,East,83,1.0,-999.0,52,-99.99,,,0.00,,2013-02-18 01:52:00,
2013-02-17 20:01:00,38.0,23.0,30.25,East,83,1.0,-999.0,55,-99.99,,,0.00,,2013-02-18 02:01:00,
2013-02-17 20:11:00,38.0,23.0,30.25,East,83,1.0,-999.0,55,-99.99,,,0.00,,2013-02-18 02:11:00,
2013-02-17 20:21:00,38.0,23.0,30.25,East,83,0.0,-999.0,55,-99.99,,,0.00,,2013-02-18 02:21:00,
2013-02-17 20:32:00,38.0,23.0,30.25,East,83,0.0,-999.0,55,-99.99,,,0.00,,2013-02-18 02:32:00,
2013-02-17 20:41:00,38.0,23.0,30.25,East,83,0.0,-999.0,55,-99.99,,,0.00,,2013-02-18 02:41:00,
2013-02-17 20:52:00,37.0,24.0,30.25,East,84,0.0,-999.0,58,-99.99,,,0.00,,2013-02-18 02:52:00,
2013-02-17 21:01:00,36.0,23.0,30.26,East,84,0.0,-999.0,59,-99.99,,,0.00,,2013-02-18 03:01:00,
2013-02-17 21:11:00,36.0,23.0,30.26,East,84,0.0,-999.0,59,-99.99,,,0.00,,2013-02-18 03:11:00,
2013-02-17 21:21:00,36.0,23.0,30.26,East,84,0.0,-999.0,59,-99.99,,,0.00,,2013-02-18 03:21:00,
2013-02-17 21:31:00,35.0,23.0,30.26,East,84,0.0,-999.0,60,-99.99,,,0.00,,2013-02-18 03:31:00,
2013-02-17 21:42:00,35.0,23.0,30.26,East,84,0.0,-999.0,60,-99.99,,,0.00,,2013-02-18 03:42:00,
2013-02-17 21:52:00,34.0,23.0,30.27,East,83,0.0,-999.0,63,-99.99,,,0.00,,2013-02-18 03:52:00,
2013-02-17 22:01:00,34.0,23.0,30.27,East,84,1.0,-999.0,63,-99.99,,,0.00,,2013-02-18 04:01:00,
2013-02-17 22:11:00,34.0,23.0,30.27,East,84,1.0,-999.0,63,-99.99,,,0.00,,2013-02-18 04:11:00,
2013-02-17 22:21:00,34.0,23.0,30.27,East,84,1.0,-999.0,63,-99.99,,,0.00,,2013-02-18 04:21:00,
2013-02-17 22:32:00,34.0,23.0,30.27,East,83,1.0,-999.0,65,-99.99,,,0.00,,2013-02-18 04:32:00,
2013-02-17 22:41:00,34.0,23.0,30.27,East,83,1.0,-999.0,65,-99.99,,,0.00,,2013-02-18 04:41:00,
2013-02-17 22:52:00,34.0,24.0,30.26,East,84,2.0,-999.0,66,-99.99,,,0.00,,2013-02-18 04:52:00,
2013-02-17 23:02:00,34.0,25.0,30.26,East,84,1.0,-999.0,68,-99.99,,,0.00,,2013-02-18 05:02:00,
2013-02-17 23:11:00,34.0,25.0,30.26,East,84,1.0,-999.0,68,-99.99,,,0.00,,2013-02-18 05:11:00,
2013-02-17 23:21:00,34.0,23.0,30.27,East,84,1.0,-999.0,65,-99.99,,,0.00,,2013-02-18 05:21:00,
2013-02-17 23:31:00,34.0,23.0,30.27,East,83,2.0,-999.0,65,-99.99,,,0.00,,2013-02-18 05:31:00,
2013-02-17 23:41:00,34.0,23.0,30.27,East,83,2.0,-999.0,65,-99.99,,,0.00,,2013-02-18 05:41:00,
2013-02-17 23:52:00,34.0,23.0,30.26,East,84,1.0,-999.0,65,-99.99,,,0.00,,2013-02-18 05:52:00,